This is the latest recevied weather packets stored in our database for station/object SQ5LTL-2. If no packets are shown the sender has not sent any weather packets the latest 10 day(s).
| Time | Temp. | Humidity | Pressure | Rain* | Wind** | Luminosity | Snow |
|---|---|---|---|---|---|---|---|
| 1778161834 | 18.33° C | 68% | 1012.4 hPa | 0 mm | - | 291 W/m² | - |
| 1778161533 | 18.89° C | 68% | 1012.3 hPa | 0 mm | - | 234 W/m² | - |
| 1778161232 | 18.89° C | 68% | 1012.2 hPa | 0 mm | - | 215 W/m² | - |
| 1778160929 | 18.89° C | 68% | 1012.2 hPa | 0 mm | - | 238 W/m² | - |
| 1778160628 | 18.89° C | 69% | 1012.1 hPa | 0 mm | - | 270 W/m² | - |
| 1778160327 | 18.89° C | 68% | 1012.1 hPa | 0 mm | - | 228 W/m² | - |
| 1778160026 | 18.89° C | 67% | 1012.1 hPa | 0 mm | - | 188 W/m² | - |
| 1778159724 | 18.89° C | 67% | 1012.1 hPa | 0 mm | - | 247 W/m² | - |
| 1778159423 | 19.44° C | 67% | 1012.1 hPa | 0 mm | - | 263 W/m² | - |
| 1778159121 | 18.89° C | 68% | 1012.1 hPa | 0 mm | - | 278 W/m² | - |
| 1778158820 | 18.89° C | 68% | 1011.9 hPa | 0 mm | - | 345 W/m² | - |
| 1778158520 | 18.89° C | 68% | 1011.9 hPa | 0 mm | - | 297 W/m² | - |
| 1778158216 | 19.44° C | 67% | 1012 hPa | 0 mm | - | 340 W/m² | - |
| 1778157935 | 19.44° C | 67% | 1011.8 hPa | 0 mm | - | 464 W/m² | - |
| 1778157635 | 19.44° C | 67% | 1011.8 hPa | 0 mm | - | 367 W/m² | - |
| 1778157334 | 19.44° C | 66% | 1011.7 hPa | 0 mm | - | 373 W/m² | - |
| 1778157032 | 20° C | 66% | 1011.8 hPa | 0 mm | - | 342 W/m² | - |
| 1778156730 | 19.44° C | 66% | 1011.7 hPa | 0 mm | - | 369 W/m² | - |
| 1778156429 | 20° C | 66% | 1011.8 hPa | 0 mm | - | 327 W/m² | - |
| 1778156127 | 19.44° C | 68% | 1011.7 hPa | 0 mm | - | 400 W/m² | - |
| 1778155825 | 19.44° C | 68% | 1011.6 hPa | 0 mm | - | 309 W/m² | - |
| 1778155523 | 19.44° C | 68% | 1011.5 hPa | 0 mm | - | 314 W/m² | - |
| 1778155224 | 20° C | 67% | 1011.4 hPa | 0 mm | - | 272 W/m² | - |
| 1778154921 | 20° C | 67% | 1011.5 hPa | 0 mm | - | 273 W/m² | - |
| 1778154620 | 20.56° C | 66% | 1011.4 hPa | 0 mm | - | 250 W/m² | - |
* Rain latest hour (hover to see other rain measurements)
** Current wind speed in m/s (hover to see current wind gust speed)